Home > Weather > Barysaw > Past weeks

Flag for Belarus Weather for the Past 2 Weeks in Barysaw, Belarus

Now
37 °F

Light rain. Low clouds.


Feels Like: 27 °F
Forecast: 34 / 38 °F
Wind: 20 mph from Southeast

Location: Minsk

Current Time: Feb 11, 2016 at 8:18:53 AM

Latest Report: Feb 11, 2016 at 7:30 AM


Visibility: 6 mi

Pressure: 29.39 "Hg

Humidity: 93%

Dew point: 36 °F

Location of BarysawLocation

Historic Weather in Barysaw — Graph

°F

Barysaw Temperature Yesterday

Maximum temperature yesterday: 39 °F (at 12:30 AM)
Minimum temperature yesterday: 36 °F (at 4:30 AM)
Average temperature yesterday: 38 °F

High & Low Weather Summary for the Past Weeks

 TemperatureHumidityPressure
High45 °F (Feb 2, 3:30 PM)100% (Jan 27, 7:00 AM)30.18 "Hg (Jan 27, 7:00 AM)
Low28 °F (Feb 8, 6:30 AM)60% (Feb 6, 2:00 PM)29.39 "Hg (Jan 31, 9:00 AM)
Average36 °F85%29.75 "Hg
* Reported Jan 27 7:00 AM — Feb 11 6:30 AM, Barysaw, Weather by CustomWeather, © 2016

Note: Actual official high and low records may vary slightly from our data, if they occured in-between our weather recording intervals... More about our weather records

Advertising

Barysaw Weather History for the Previous 24 Hours

 ConditionsComfort  
Time TempWeatherWind HumidityBarometerVisibility
6:30 AM
Thu, Feb 11
37 °FLight rain. Low clouds.20 mph93%29.39 "Hg4 mi
6:00 AM37 °FLight rain. Low clouds.20 mph93%29.39 "Hg5 mi
5:30 AM37 °FLight rain. Low clouds.20 mph93%29.39 "HgN/A
5:00 AM37 °FLight rain. Low clouds.20 mph93%29.39 "HgN/A
4:30 AM37 °FLight rain. Low clouds.20 mph93%29.39 "HgN/A
4:00 AM37 °FLight rain. Low clouds.20 mph93%29.39 "Hg6 mi
3:30 AM37 °FLight rain. Low clouds.20 mph93%29.39 "HgN/A
2:30 AM39 °FLight rain. Fog.20 mph87%29.42 "Hg3 mi
2:00 AM37 °FLight rain. Low clouds.17 mph93%29.42 "Hg6 mi
1:30 AM39 °FOvercast.22 mph87%29.42 "HgN/A
12:30 AM37 °FOvercast.20 mph93%29.45 "HgN/A
12:00 AM37 °FOvercast.17 mph87%29.45 "HgN/A
11:30 PM
Wed, Feb 10
39 °FOvercast.15 mph81%29.47 "HgN/A
11:00 PM37 °FOvercast.17 mph87%29.50 "HgN/A
10:30 PM39 °FOvercast.17 mph81%29.50 "HgN/A
10:00 PM39 °FOvercast.17 mph81%29.50 "HgN/A
9:30 PM39 °FOvercast.17 mph81%29.50 "HgN/A
9:00 PM39 °FOvercast.17 mph81%29.50 "HgN/A
8:30 PM39 °FOvercast.15 mph81%29.50 "HgN/A
8:00 PM39 °FOvercast.17 mph87%29.50 "HgN/A
7:30 PM39 °FOvercast.17 mph87%29.50 "HgN/A
7:00 PM39 °FOvercast.17 mph87%29.53 "HgN/A
6:30 PM39 °FOvercast.15 mph87%29.53 "HgN/A
6:00 PM39 °FOvercast.17 mph87%29.53 "HgN/A
5:30 PM39 °FOvercast.15 mph87%29.53 "HgN/A
5:00 PM39 °FOvercast.15 mph87%29.53 "HgN/A
4:30 PM39 °FOvercast.15 mph87%29.53 "HgN/A
4:00 PM39 °FOvercast.15 mph87%29.53 "HgN/A
3:30 PM39 °FOvercast.17 mph87%29.53 "HgN/A
3:00 PM39 °FOvercast.15 mph87%29.53 "HgN/A
2:30 PM39 °FOvercast.13 mph87%29.56 "HgN/A
2:00 PM37 °FLow clouds.10 mph93%29.56 "HgN/A
1:30 PM37 °FLow clouds.13 mph93%29.56 "Hg5 mi
1:00 PM37 °FLow clouds.13 mph93%29.59 "Hg5 mi
12:30 PM37 °FLow clouds.13 mph93%29.59 "Hg5 mi
12:00 PM37 °FLow clouds.15 mph93%29.59 "Hg5 mi
11:30 AM37 °FLow clouds.15 mph93%29.59 "Hg5 mi
11:00 AM36 °FLow clouds.15 mph100%29.59 "Hg5 mi
10:30 AM36 °FLow clouds.15 mph93%29.59 "HgN/A
10:00 AM36 °FPartly sunny.13 mph93%29.59 "HgN/A
9:30 AM36 °FPassing clouds.15 mph93%29.59 "HgN/A
9:00 AM36 °FLow clouds.13 mph93%29.59 "Hg6 mi
8:30 AM36 °FPassing clouds.10 mph93%29.59 "Hg5 mi
8:00 AM36 °FPassing clouds.10 mph93%29.59 "Hg5 mi
Weather by CustomWeather, © 2016

See weather overviewHow to use our weather pages